Location: Ottawa
(45.4167°N, 75.7000°W)
Time: 19:41:50
(UTC-05:00)

Envisat - Pass Details

Date: 16 October 2017
Orbit: 764 x 766 km, 98.2° (Epoch: 11 December)

Event Time Altitude Azimuth Distance (km) Brightness Sun altitude
Exits shadow 22:26:26 12° 283° (WNW) 2,196 5.9 -42.8°
Drops below altitude 10° 22:27:32 10° 296° (WNW) 2,311 6.1 -42.9°
Sets 22:31:29 0° 327° (NNW) 3,245 7.0 -43.5°
